LKKB Weather Reports


time (UTC)temp
F
wind
direction
speed
knots
gust
knots
rain 1hr
in
rain 24hr
in
rain mn
in
humidity
%
barometer
mb
20260902070211 63 210 2.6 0.0 0.00 0.00 0.00 72 1021.0
20260902063103 59 210 2.6 0.0 0.00 0.00 0.00 82 1021.0
20260902061852 59 210 4.3 0.0 0.00 0.00 0.00 77
20260902060104 59 220 5.2 0.0 0.00 0.00 0.00 77 1021.0
20260902053104 57 220 4.3 0.0 0.00 0.00 0.00 87 1021.0
20260902052038 55 200 4.3 0.0 0.00 0.00 0.00 82
20260902050104 54 210 2.6 0.0 0.00 0.00 0.00 87 1021.0
20260902043103 54 180 4.3 0.0 0.00 0.00 0.00 87 1021.0
20260902042154 54 180 4.3 0.0 0.00 0.00 0.00 87
20260902040209 54 180 4.3 0.0 0.00 0.00 0.00 87 1021.0
20260902033103 54 190 4.3 0.0 0.00 0.00 0.00 87 1021.0
20260902031851 54 180 4.3 0.0 0.00 0.00 0.00 87
20260902030211 55 190 5.2 0.0 0.00 0.00 0.00 87 1021.0
20260902023103 55 210 2.6 0.0 0.00 0.00 0.00 82 1021.0
20260902022051 57 230 4.3 0.0 0.00 0.00 0.00 76
20260902013103 55 210 5.2 0.0 0.00 0.00 0.00 87 1021.0
20260902012051 55 200 6.1 0.0 0.00 0.00 0.00 82
20260902003102 55 200 2.6 0.0 0.00 0.00 0.00 82 1021.0
20260902001852 57 190 6.1 0.0 0.00 0.00 0.00 76
20260902000211 57 190 5.2 0.0 0.00 0.00 0.00 82 1021.0
20260901233102 57 190 4.3 0.0 0.00 0.00 0.00 82 1021.0
20260901232038 59 180 6.1 0.0 0.00 0.00 0.00 77
20260901223102 59 190 5.2 0.0 0.00 0.00 0.00 77 1021.0
20260901222154 57 190 4.3 0.0 0.00 0.00 0.00 82
20260901220104 61 190 4.3 0.0 0.00 0.00 0.00 72 1021.0
20260901213102 61 190 2.6 0.0 0.00 0.00 0.00 72 1020.0
20260901211852 59 190 4.3 0.0 0.00 0.00 0.00 72
20260901210211 61 190 1.7 0.0 0.00 0.00 0.00 72 1020.0
20260901203103 61 190 2.6 0.0 0.00 0.00 0.00 67 1020.0
20260901202050 64 200 1.7 0.0 0.00 0.00 0.00 59
20260901193102 64 290 0.9 0.0 0.00 0.00 0.00 63 1020.0
20260901192052 66 290 1.7 0.0 0.00 0.00 0.00 55
20260901183102 66 0 1.7 0.0 0.00 0.00 0.00 59 1020.0
20260901181851 68 220 1.7 0.0 0.00 0.00 0.00 52
20260901180103 68 190 2.6 0.0 0.00 0.00 0.00 52 1020.0
20260901173102 70 280 4.3 0.0 0.00 0.00 0.00 46 1019.0
20260901172052 72 270 4.3 0.0 0.00 0.00 0.00 43
20260901170212 70 270 4.3 0.0 0.00 0.00 0.00 49 1019.0
20260901163103 72 240 6.1 0.0 0.00 0.00 0.00 46 1019.0
20260901162154 73 240 4.3 0.0 0.00 0.00 0.00 43
20260901153103 73 290 4.3 0.0 0.00 0.00 0.00 43 1020.0
20260901151851 72 280 4.3 0.0 0.00 0.00 0.00 43
20260901150103 72 280 5.2 0.0 0.00 0.00 0.00 46 1020.0
20260901143102 72 300 7.8 0.0 0.00 0.00 0.00 46 1020.0
20260901142051 72 300 6.1 0.0 0.00 0.00 0.00 43
20260901133103 72 270 7.8 0.0 0.00 0.00 0.00 46 1020.0
20260901131952 72 260 7.8 0.0 0.00 0.00 0.00 46
20260901123209 70 270 5.2 0.0 0.00 0.00 0.00 52 1020.0
20260901121851 70 290 7.8 0.0 0.00 0.00 0.00 49
20260901120103 70 290 7.0 0.0 0.00 0.00 0.00 52 1021.0
20260901113103 70 290 10.4 0.0 0.00 0.00 0.00 52 1021.0
20260901111952 70 280 10.4 0.0 0.00 0.00 0.00 52
20260901103103 70 280 10.4 0.0 0.00 0.00 0.00 52 1020.0
20260901102152 68 270 10.4 0.0 0.00 0.00 0.00 52
20260901093102 68 270 13.0 0.0 0.00 0.00 0.00 56 1020.0
20260901091851 66 260 12.2 0.0 0.00 0.00 0.00 59
20260901090103 66 270 11.3 0.0 0.00 0.00 0.00 63 1020.0
20260901083103 66 270 12.2 0.0 0.00 0.00 0.00 63 1020.0
20260901082055 64 260 10.4 0.0 0.00 0.00 0.00 63
20260901073103 64 250 13.0 0.0 0.00 0.00 0.00 67 1020.0
20260901072052 64 250 12.2 0.0 0.00 0.00 0.00 67